Simultaneous Nadir Overpasses (SNOs) Predictions

Prediction of SNOs between GOES-16 and LANDSAT-8 Satellite Orbit:

Table of predicted SNOs for the next 14.0 days since TLE Epoch: 8/8/2020
Index Date Time (GOES-16) GOES-16 Lat,Lon LANDSAT-8 Lat,Lon Distance(km) Time Diff (sec)
1 08/08/2020 14:54:17 -0.02, -75.23 -0.94, -70.95 486.63 80
2 08/09/2020 03:18:21 0.01, -75.21 -0.20, -76.14 105.15 80
3 08/11/2020 03:03:30 0.01, -75.23 0.43, -73.18 233.20 80
4 08/11/2020 15:27:26 -0.00, -75.26 0.63, -78.34 350.23 80
5 08/13/2020 15:15:15 -0.01, -75.28 0.00, -75.38 11.62 80
6 08/15/2020 15:00:24 -0.01, -75.30 -0.63, -72.42 327.38 80
7 08/16/2020 03:24:28 -0.00, -75.29 -0.50, -77.61 263.96 80
8 08/18/2020 03:09:37 0.00, -75.32 0.14, -74.65 75.25 80
9 08/20/2020 02:57:26 0.01, -75.35 0.78, -71.70 414.99 80
10 08/20/2020 15:21:22 -0.00, -75.37 0.29, -76.86 168.13 80
